Location: Recife
(8.0585°S, 34.8848°W)
Time: 11:47:13
(UTC-03:00)

Courier 1B - Pass Details

Date: 16 April 2026
Orbit: 962 x 1209 km, 28.3° (Epoch: 7 May)

Event Time Altitude Azimuth Distance (km) Brightness Sun altitude
Rises 14:02:11 0° 237° (WSW) 3,986 11.0 45.5°
Reaches altitude 10° 14:05:06 10° 234° (SW) 2,989 10.5 44.8°
Maximum altitude 14:12:22 65° 153° (SSE) 1,159 8.3 43.2°
Drops below altitude 10° 14:19:09 10° 71° (ENE) 2,798 9.7 41.6°
Sets 14:21:47 0° 68° (ENE) 3,717 10.2 41.0°
